CW7218 Weather Reports


Display with metric or nautical units.
time (UTC)temp
F
wind
direction
speed
MPH
gust
MPH
rain 1hr
in
rain 24hr
in
rain mn
in
humidity
%
barometer
mb
20260508031017 48 45 4.0 7.0 0.00 0.85 0.00 79 1011.7
20260508030037 48 45 5.0 8.0 0.00 0.85 0.00 79 1011.8
20260508025017 49 45 6.0 10.0 0.00 0.85 0.00 78 1012.0
20260508024017 48 23 5.0 8.0 0.00 0.85 0.00 78 1011.9
20260508023017 48 45 6.0 9.0 0.00 0.85 0.00 80 1011.9
20260508022017 48 45 4.0 8.0 0.00 0.85 0.00 80 1012.0
20260508021019 49 0 2.0 4.0 0.00 0.85 0.00 80 1012.0
20260508020019 49 0 1.0 3.0 0.00 0.85 0.00 80 1012.1
20260508015039 49 0.0 1.0 0.00 0.85 0.00 83 1012.2
20260508014039 49 23 2.0 4.0 0.00 0.85 0.00 81 1012.0
20260508013039 49 45 2.0 4.0 0.00 0.85 0.00 81 1012.1
20260508012019 49 45 2.0 4.0 0.00 0.85 0.00 81 1012.0
20260508011019 49 45 4.0 8.0 0.00 0.85 0.00 81 1012.3
20260508010039 50 45 6.0 10.0 0.00 0.85 0.00 80 1012.4
20260508005019 49 45 4.0 7.0 0.00 0.85 0.00 82 1012.4
20260508004019 49 45 4.0 7.0 0.00 0.85 0.00 81 1012.6
20260508003039 49 45 4.0 8.0 0.00 0.85 0.00 81 1012.7
20260508002019 49 45 6.0 9.0 0.00 0.85 0.00 82 1012.8
20260508001039 48 45 7.0 10.0 0.00 0.85 0.00 83 1012.7
20260508000019 48 45 7.0 11.0 0.00 0.85 0.85 83 1012.6
20260507235019 49 45 6.0 9.0 0.00 0.85 0.85 82 1012.8
20260507234019 49 23 5.0 9.0 0.00 0.85 0.85 82 1012.9
20260507233019 49 45 6.0 9.0 0.00 0.85 0.85 83 1013.1
20260507232019 49 45 6.0 10.0 0.00 0.85 0.85 83 1013.2
20260507231019 49 45 4.0 7.0 0.00 0.85 0.85 82 1013.2
20260507230039 50 45 3.0 7.0 0.00 0.85 0.85 81 1013.1
20260507225038 50 23 4.0 8.0 0.00 0.85 0.85 80 1013.4
20260507224019 50 45 6.0 10.0 0.00 0.85 0.85 80 1013.2
20260507223039 50 45 6.0 8.0 0.00 0.85 0.85 79 1013.1
20260507222018 50 68 5.0 7.0 0.00 0.85 0.85 79 1013.2
20260507221019 51 45 1.0 5.0 0.00 0.85 0.85 80 1013.3
20260507220018 51 338 2.0 5.0 0.00 0.85 0.85 80 1013.2
20260507215019 51 23 4.0 7.0 0.00 0.85 0.85 79 1013.2
20260507214039 51 45 3.0 6.0 0.00 0.85 0.85 79 1013.2
20260507213018 52 0 7.0 17.0 0.00 0.85 0.85 78 1013.2
20260507212018 51 45 12.0 17.0 0.00 0.85 0.85 76 1013.2
20260507211018 51 45 11.0 16.0 0.00 0.85 0.85 75 1013.0
20260507210039 52 45 9.0 15.0 0.01 0.85 0.85 74 1013.0
20260507205018 52 45 12.0 18.0 0.02 0.85 0.85 74 1013.0
20260507204018 52 45 14.0 22.0 0.04 0.85 0.85 76 1013.1
20260507203018 52 45 14.0 21.0 0.06 0.85 0.85 76 1013.1
20260507202038 51 45 13.0 19.0 0.12 0.85 0.85 79 1012.9
20260507201018 51 45 11.0 18.0 0.19 0.85 0.85 79 1012.7
20260507200038 52 23 9.0 17.0 0.31 0.84 0.84 78 1012.8
20260507195018 53 0 11.0 18.0 0.38 0.83 0.83 74 1012.8
20260507194018 52 0 11.0 19.0 0.41 0.81 0.81 76 1012.5
20260507193018 52 0 13.0 25.0 0.61 0.80 0.80 76 1012.5
20260507192018 52 0 13.0 22.0 0.61 0.73 0.73 75 1012.5
20260507191018 52 338 10.0 19.0 0.58 0.66 0.66 75 1011.9
20260507190018 52 0 9.0 19.0 0.50 0.54 0.54 75 1011.8
20260507185018 52 0 12.0 20.0 0.46 0.46 0.46 76 1011.5
20260507184018 51 0 14.0 22.0 0.40 0.40 0.40 78 1011.3
20260507183018 51 0 12.0 19.0 0.18 0.18 0.18 81 1011.2
20260507182018 51 23 14.0 21.0 0.12 0.12 0.12 81 1011.1
20260507181018 52 45 13.0 26.0 0.08 0.08 0.08 81 1010.9
20260507180018 53 68 14.0 24.0 0.03 0.03 0.03 77 1010.5
20260507175018 56 68 9.0 23.0 0.00 0.00 0.00 71 1010.3
20260507174018 58 270 3.0 6.0 0.00 0.00 0.00 74 1010.1
20260507173058 59 225 5.0 11.0 0.00 0.00 0.00 72 1010.0
20260507172018 60 225 8.0 15.0 0.00 0.00 0.00 69 1010.0
20260507171018 60 248 5.0 14.0 0.00 0.00 0.00 66 1009.9
20260507170018 60 248 6.0 12.0 0.00 0.00 0.00 65 1009.8
20260507165017 61 203 4.0 11.0 0.00 0.00 0.00 66 1009.8
20260507164018 61 203 7.0 14.0 0.00 0.00 0.00 65 1009.8
20260507163017 61 203 7.0 13.0 0.00 0.00 0.00 65 1009.6
20260507162058 61 203 5.0 9.0 0.00 0.00 0.00 65 1009.7
20260507161017 61 203 5.0 10.0 0.00 0.00 0.00 65 1009.7
20260507160017 61 203 8.0 14.0 0.00 0.00 0.00 65 1009.8
20260507155017 61 203 9.0 16.0 0.00 0.00 0.00 64 1009.6
20260507154018 62 203 9.0 17.0 0.00 0.00 0.00 64 1009.8
20260507153018 62 180 11.0 18.0 0.00 0.00 0.00 62 1009.9
20260507152038 64 180 9.0 17.0 0.00 0.00 0.00 61 1010.0
20260507151018 64 158 4.0 15.0 0.00 0.00 0.00 57 1009.9
20260507150017 64 248 4.0 10.0 0.00 0.00 0.00 51 1009.8
20260507145017 65 203 6.0 11.0 0.00 0.00 0.00 50 1010.1
20260507144037 65 180 5.0 11.0 0.00 0.00 0.00 52 1010.1
20260507143017 64 180 4.0 7.0 0.00 0.00 0.00 52 1010.0
20260507142017 64 203 4.0 9.0 0.00 0.00 0.00 52 1010.2
20260507141037 64 180 4.0 9.0 0.00 0.00 0.00 50 1010.3
20260507140017 64 158 3.0 8.0 0.00 0.00 0.00 53 1010.4
20260507135017 63 203 2.0 5.0 0.00 0.00 0.00 55 1010.5
20260507134017 63 225 1.0 5.0 0.00 0.00 0.00 55 1010.8
20260507133017 62 203 3.0 7.0 0.00 0.00 0.00 56 1010.9
20260507132017 62 180 4.0 8.0 0.00 0.00 0.00 56 1011.0
20260507131017 63 158 5.0 10.0 0.00 0.00 0.00 56 1011.1
20260507130017 62 180 5.0 8.0 0.00 0.00 0.00 58 1011.2
20260507125017 63 180 4.0 8.0 0.00 0.00 0.00 56 1011.4
20260507124017 62 180 6.0 12.0 0.00 0.00 0.00 58 1011.4
20260507123017 63 180 5.0 9.0 0.00 0.00 0.00 57 1011.5
20260507122017 63 180 5.0 11.0 0.00 0.00 0.00 57 1011.6
20260507121017 62 203 5.0 10.0 0.00 0.00 0.00 59 1011.6
20260507120017 61 203 7.0 13.0 0.00 0.00 0.00 59 1011.7
20260507115017 62 180 6.0 12.0 0.00 0.00 0.00 58 1011.8
20260507114019 62 180 5.0 9.0 0.00 0.00 0.00 58 1012.1
20260507113019 62 180 5.0 11.0 0.00 0.00 0.00 59 1012.0
20260507112039 61 180 5.0 11.0 0.00 0.00 0.00 60 1012.1
20260507111019 61 135 6.0 11.0 0.00 0.00 0.00 61 1012.3
20260507110039 61 158 5.0 11.0 0.00 0.00 0.00 62 1012.5
20260507105019 60 180 6.0 12.0 0.00 0.00 0.00 63 1012.5
20260507104019 61 158 5.0 13.0 0.00 0.00 0.00 59 1012.7
20260507103039 61 158 3.0 7.0 0.00 0.00 0.00 63 1012.5
20260507102018 59 158 5.0 13.0 0.00 0.00 0.00 64 1012.6
20260507101018 59 135 6.0 13.0 0.00 0.00 0.00 65 1012.7
20260507100019 59 158 6.0 12.0 0.00 0.00 0.00 65 1012.7
20260507095039 60 158 4.0 9.0 0.00 0.00 0.00 66 1012.8
20260507094039 60 135 4.0 10.0 0.00 0.00 0.00 64 1013.0
20260507093019 60 158 3.0 9.0 0.00 0.00 0.00 64 1012.8
20260507092019 59 158 5.0 10.0 0.00 0.00 0.00 65 1012.7
20260507091019 59 158 4.0 9.0 0.00 0.00 0.00 68 1012.8
20260507090018 58 180 5.0 11.0 0.00 0.00 0.00 69 1013.0
20260507085018 57 180 5.0 9.0 0.00 0.00 0.00 71 1013.0
20260507084018 57 158 3.0 8.0 0.00 0.00 0.00 70 1013.0
20260507083038 57 315 3.0 8.0 0.00 0.00 0.00 70 1013.2
20260507082018 57 158 2.0 6.0 0.00 0.00 0.00 68 1013.3
20260507081018 57 158 2.0 5.0 0.00 0.00 0.00 69 1013.4
20260507080018 56 158 3.0 7.0 0.00 0.00 0.00 70 1013.4
20260507075018 56 158 3.0 8.0 0.00 0.00 0.00 70 1013.4
20260507074018 57 113 2.0 5.0 0.00 0.00 0.00 69 1013.4
20260507073018 56 113 1.0 4.0 0.00 0.00 0.00 69 1013.4
20260507072018 55 90 2.0 5.0 0.00 0.00 0.00 71 1013.3
20260507071038 54 90 2.0 4.0 0.00 0.00 0.00 75 1013.2
20260507070018 53 90 2.0 6.0 0.00 0.00 0.00 77 1013.0
20260507065018 51 68 3.0 7.0 0.00 0.00 0.00 80 1012.8
20260507064018 51 45 5.0 8.0 0.00 0.00 0.00 80 1013.0
20260507063018 50 45 4.0 7.0 0.00 0.00 0.00 81 1012.8
20260507062018 49 45 5.0 8.0 0.00 0.00 0.00 82 1012.9
20260507061018 49 68 3.0 7.0 0.00 0.00 0.00 82 1012.8
20260507060018 48 68 5.0 10.0 0.00 0.00 0.00 84 1012.5
20260507055038 48 45 6.0 8.0 0.00 0.00 0.00 85 1012.5
20260507054018 47 45 7.0 10.0 0.00 0.00 0.00 86 1012.4
20260507053018 47 45 7.0 9.0 0.00 0.00 0.00 85 1012.4
20260507052038 47 45 6.0 9.0 0.00 0.00 0.00 85 1012.4
20260507051018 47 45 5.0 8.0 0.00 0.00 0.00 85 1012.5
20260507050018 47 45 5.0 7.0 0.00 0.00 0.00 86 1012.4
20260507045018 47 45 5.0 9.0 0.00 0.00 0.00 86 1012.5
20260507044018 47 45 6.0 8.0 0.00 0.00 0.00 86 1012.4
20260507043018 47 23 6.0 9.0 0.00 0.00 0.00 84 1012.3
20260507042018 47 45 5.0 9.0 0.00 0.00 0.00 86 1012.4
20260507041038 47 45 5.0 8.0 0.00 0.00 0.00 85 1012.3
20260507040038 48 45 6.0 9.0 0.00 0.00 0.00 84 1012.4
20260507035017 48 45 5.0 7.0 0.00 0.00 0.00 84 1012.3
20260507034018 48 45 5.0 7.0 0.00 0.00 0.00 84 1012.5
20260507033017 49 45 3.0 5.0 0.00 0.00 0.00 80 1012.6
20260507032017 49 45 4.0 6.0 0.00 0.00 0.00 81 1012.5